Regional Weather Roundup
Issued by NWS Bismarck, ND

Home | Current Version | Previous Version | Text Only | Print | Product List | Glossary On
Versions: 1 2 3 4 5 6 7 8 9 10 11 12 13 14 15 16 17 18 19 20 21 22 23 24 25 26 27 28 29 30 31 32 33 34 35 36 37 38 39 40 41 42 43 44 45 46 47 48 49 50
000
ASUS43 KBIS 281810
RWRBIS

NWR BROADCAST TEXT
NATIONAL WEATHER SERVICE BISMARCK ND
100 PM CDT SAT MAR 28 2015

NOTE: "FAIR" INDICATES FEW OR NO CLOUDS BELOW 12,000 FEET WITH NO
SIGNIFICANT WEATHER AND/OR OBSTRUCTIONS TO VISIBILITY.


CITY           SKY/WX    TMP DP  RH WIND       PRES   REMARKS
WILLISTON      SUNNY     68  37  32 S15       29.58F
MINOT          SUNNY     52  36  54 S23G29    29.66F
MINOT AFB      SUNNY     51  45  79 S22       29.66F
BISMARCK       SUNNY     54  34  46 S16       29.81F
DICKINSON      SUNNY     68  37  32 S22       29.67F
GARRISON         N/A     49  37  63 S20       29.71F
HETTINGER ARPT SUNNY     67  36  31 S17G26    29.75F
JAMESTOWN      CLOUDY    41  34  76 S22G31    29.90F
BEACH          FAIR      73  32  21 SW18G24   29.65F
CARRINGTON     FAIR      45  39  81 S28G33    29.84F
CROSBY         FAIR      63  39  42 S20G28    29.55F
HARVEY         FAIR      48  36  61 S21G29    29.78F
HAZEN          FAIR      55  36  47 S24G33    29.71F
LINTON         FAIR      50  36  57 S21G26    29.85F
MANDAN         FAIR      50  34  53 S21G26    29.80F
OAKES            N/A     43  36  75 S16G29    29.97F
RUGBY          FAIR      41  37  87 S20G25    29.75F
WATFORD CITY   FAIR      68  36  30 S14       29.58F
$$

CITY           SKY/WX    TMP DP  RH WIND       PRES   REMARKS
GRAND FORKS    MOSUNNY   44  28  53 S28G36    29.95F
GRAND FORKS AF CLOUDY    43  29  58 S22G29    29.93F
DEVILS LAKE    PTSUNNY   39  32  75 S23G30    29.84F
FARGO          MOSUNNY   47  26  44 S22G32    30.01F
CAVALIER       MOCLDY    37  32  81 S23G32    29.88F
GWINNER        CLEAR     45  32  61 S22G28      N/A
ROLLA          MIX PCPN  32  32 100 S20       29.76F
WALHALLA         N/A     39  36  87 S22G28    29.86F
$$

CITY           SKY/WX    TMP DP  RH WIND       PRES   REMARKS
ABERDEEN       SUNNY     48  29  47 S20G28    29.98F
MOBRIDGE       SUNNY     53  34  48 S23       29.84F
BUFFALO          N/A     69  35  28 S17G23    29.68F
RAPID CITY     SUNNY     72  34  24 S17       29.80F
GLASGOW        MOSUNNY   70  37  29 S12       29.52F
SIDNEY         SUNNY     66  37  34 S16       29.59F
WOLF POINT     PTSUNNY   71  40  32 VRB5      29.54F
GLENDIVE         N/A     70  39  32 S12       29.64F
MILES CITY     MOSUNNY   76  36  23 SW13      29.62F
BAKER          SUNNY     74  33  22 SW17      29.69F
$$

CITY           SKY/WX    TMP DP  RH WIND       PRES   REMARKS
BILLINGS       MOSUNNY   75  26  16 SW22G32   29.67F
GREAT FALLS    CLOUDY    54  25  32 W38G52    29.77R HAZE
REGINA         PTSUNNY   50  45  81 SE13      29.48F
$$



USA.gov is the U.S. government's official web portal to all federal, state and local government web resources and services.